[[{"header":{"parameterUnit":"m.s-1","parameterCategory":1,"la1":30.2991,"la2":30.254,"lo1":-89.0895,"lo2":-89.0444,"dy":0.0017,"dx":0.0017,"nx":28,"ny":28,"refTime":"2024-02-04T09:00:00:Z","depth":0,"parameterNumber":2,"parameterNumberName":"U-component_of_WINDS"},"data":[0,0,0,0,0,0,0,0,0,0,0,0,0,0,0,0,0,0,0,0,0,0,0,0,0,0,0,0,0,0,0,0,0,0,0,0,0,0,0,0,0,0,0,0,0,0,0,0,0,0,0,0,0,0,0,0,0,0,-0.1407,-0.1405,0,-0.1277,-0.1276,-0.1275,-0.1202,-0.1202,-0.1202,-0.1202,-0.1067,-0.1063,-0.106,0,0,0,0,0,0,0,0,0,0,0,0,0,-0.1589,-0.1586,-0.1407,-0.1405,-0.1403,-0.1278,-0.1276,-0.1274,-0.1202,-0.1202,-0.1202,-0.1202,-0.1068,-0.1064,-0.106,0,0,0,0,0,0,0,0,0,0,0,0,0,-0.149,-0.1585,-0.1407,-0.1353,-0.1346,-0.1278,-0.1276,-0.1274,-0.1202,-0.1202,-0.1202,-0.1201,-0.1069,-0.1064,-0.1059,-0.1034,0,0,-0.1043,-0.1041,0,0,0,0,0,0,0,0,-0.1495,-0.1483,-0.1362,-0.1356,-0.1349,-0.1256,-0.129,-0.1193,-0.1203,-0.1257,-0.1202,-0.1201,-0.113,-0.1119,-0.1096,-0.1028,-0.1022,-0.1043,-0.104,-0.1038,-0.1036,0,0,0,0,0,0,0,-0.1502,-0.1488,-0.1355,-0.136,-0.1353,-0.1334,-0.1319,-0.1272,-0.1197,-0.1252,-0.1247,-0.1233,-0.1126,-0.1101,-0.1092,-0.102,-0.1043,-0.1039,-0.1035,-0.1033,-0.0925,-0.0925,0,0,0,0,0,0,-0.1518,-0.1494,-0.136,-0.1352,-0.1423,-0.1331,-0.1315,-0.1286,-0.1197,-0.1183,-0.1233,-0.123,-0.111,-0.1098,-0.1087,-0.1052,-0.1038,-0.1033,-0.103,-0.0924,-0.0925,-0.0925,0,0,0,0,0,0,-0.1522,-0.1507,-0.1365,-0.1421,-0.1402,-0.1328,-0.1296,-0.1284,-0.1259,-0.1182,-0.1168,-0.1221,-0.1109,-0.1094,-0.1048,-0.1046,-0.1031,-0.1026,-0.0924,-0.0924,-0.0925,-0.0982,0,0,0,0,0,0,-0.1528,-0.1509,-0.1499,-0.1422,-0.1399,-0.1329,-0.1296,-0.1281,-0.125,-0.1245,-0.1168,-0.1155,-0.1108,-0.1056,-0.1043,-0.1039,-0.1022,-0.0924,-0.0924,-0.0925,-0.098,-0.0984,-0.0988,0,0,0,0,0,-0.1535,-0.152,-0.1499,-0.1483,-0.1386,-0.1329,-0.1316,-0.1263,-0.1251,-0.124,-0.1191,-0.1157,-0.1049,-0.1052,-0.1036,-0.1031,-0.0924,-0.0924,-0.0925,-0.0978,-0.0983,-0.0988,0,0,0,0,0,0,-0.1598,-0.1509,-0.1485,-0.1444,-0.1395,-0.1317,-0.1302,-0.127,-0.1222,-0.1219,-0.1154,-0.1137,-0.1097,-0.1059,-0.1064,-0.1002,-0.0983,-0.098,-0.1028,-0.1033,-0.1037,-0.1047,-0.1018,0,0,0,0,0,-0.1607,-0.1569,-0.1493,-0.1465,-0.1441,-0.1376,-0.1349,-0.1313,-0.1259,-0.1237,-0.1184,-0.1132,-0.1086,-0.1057,-0.1011,-0.0974,-0.0956,-0.0963,-0.0967,-0.097,-0.0969,-0.0946,-0.0948,-0.0926,-0.0926,-0.0926,0,0,-0.1626,-0.1573,-0.1552,-0.1476,-0.1433,-0.1395,-0.1359,-0.1319,-0.129,-0.123,-0.1184,-0.1144,-0.1081,-0.104,-0.1019,-0.1007,-0.0971,-0.0971,-0.0974,-0.097,-0.0947,-0.0949,-0.0951,-0.0926,-0.0926,-0.0926,0,0,-0.164,-0.1596,-0.1568,-0.1526,-0.1463,-0.1419,-0.1413,-0.1339,-0.1311,-0.1263,-0.1218,-0.1181,-0.1104,-0.1061,-0.1029,-0.1028,-0.0995,-0.1015,-0.1035,-0.1014,-0.1016,-0.1017,-0.1017,-0.1018,-0.1014,-0.1014,-0.1014,0,-0.1672,-0.1613,-0.1557,-0.1521,-0.1489,-0.1434,-0.1405,-0.1366,-0.1291,-0.1269,-0.1257,-0.1159,-0.1113,-0.1061,-0.1061,-0.1037,-0.1027,-0.1023,-0.1021,-0.1021,-0.1021,-0.102,-0.102,-0.1016,-0.1016,-0.1016,-0.1016,0,-0.1654,-0.1614,-0.1598,-0.1528,-0.1494,-0.1461,-0.14,-0.1372,-0.1339,-0.1297,-0.1249,-0.1192,-0.1133,-0.1118,-0.1085,-0.1061,-0.1056,-0.1033,-0.1012,-0.1027,-0.1025,-0.1024,-0.102,-0.1019,-0.1019,-0.1018,0,0,-0.1704,-0.1604,-0.1599,-0.1567,-0.1492,-0.146,-0.1425,-0.1368,-0.1345,-0.1295,-0.1263,-0.1199,-0.1178,-0.1142,-0.1103,-0.1085,-0.1088,-0.1064,-0.1062,-0.107,-0.1058,-0.1076,-0.1076,-0.1066,-0.1065,-0.1065,-0.1063,0,-0.1708,-0.1643,-0.1593,-0.1546,-0.1508,-0.1456,-0.1425,-0.1376,-0.1336,-0.1297,-0.1252,-0.1208,-0.1183,-0.1161,-0.1141,-0.1092,-0.1084,-0.1091,-0.1035,-0.1034,-0.1053,-0.1075,-0.1093,-0.1095,-0.1062,-0.1062,-0.1062,0,-0.1704,-0.1657,-0.1607,-0.1537,-0.1519,-0.1493,-0.1437,-0.1401,-0.1344,-0.1315,-0.1276,-0.1236,-0.1196,-0.1179,-0.1122,-0.1128,-0.1102,-0.1075,-0.1073,-0.1066,-0.1049,-0.1068,-0.1094,-0.1094,-0.106,-0.106,-0.106,0,-0.1746,-0.167,-0.163,-0.1604,-0.1521,-0.1504,-0.1468,-0.1411,-0.138,-0.1331,-0.1311,-0.1257,-0.1228,-0.1187,-0.1134,-0.1127,-0.1083,-0.1061,-0.1058,-0.1059,-0.1051,-0.1052,-0.1072,-0.1034,-0.1034,-0.1034,-0.1034,0,-0.1756,-0.1728,-0.1648,-0.1624,-0.159,-0.1532,-0.15,-0.146,-0.141,-0.1377,-0.1328,-0.1297,-0.1228,-0.1189,-0.1147,-0.1106,-0.1093,-0.1069,-0.1058,-0.1074,-0.1077,-0.1056,-0.1054,-0.1034,-0.1034,-0.1034,-0.1034,0,-0.1797,-0.1743,-0.1696,-0.1622,-0.1603,-0.1582,-0.1518,-0.1492,-0.1449,-0.1407,-0.1394,-0.1327,-0.1278,-0.1221,-0.1153,-0.1125,-0.1088,-0.1072,-0.1108,-0.1102,-0.1101,-0.1102,-0.1109,-0.1107,-0.107,-0.1071,-0.1071,0,-0.1807,-0.1784,-0.1708,-0.1683,-0.1649,-0.1609,-0.1577,-0.1519,-0.1488,-0.1422,-0.1404,-0.1352,-0.1307,-0.1232,-0.1177,-0.1125,-0.1107,-0.1113,-0.1099,-0.1115,-0.1107,-0.1109,-0.1107,-0.1117,-0.1117,-0.1118,-0.1118,0,-0.1831,-0.1805,-0.1763,-0.1711,-0.1675,-0.1631,-0.1585,-0.1566,-0.1498,-0.1466,-0.1417,-0.1382,-0.1314,-0.1263,-0.1204,-0.1166,-0.1131,-0.1123,-0.112,-0.1135,-0.1157,-0.1146,-0.1118,-0.1123,-0.1123,-0.1122,-0.1122,-0.1122,-0.1857,-0.1834,-0.1777,-0.1731,-0.1691,-0.1649,-0.1621,-0.1575,-0.1533,-0.1474,-0.1441,-0.1393,-0.1335,-0.1253,-0.1217,-0.1177,-0.1165,-0.116,-0.1158,-0.1158,-0.1163,-0.1164,-0.1166,-0.1166,-0.1166,-0.1166,-0.1165,0,-0.1878,-0.1839,-0.1797,-0.1735,-0.1699,-0.1669,-0.1617,-0.1588,-0.1546,-0.1497,-0.1454,-0.1397,-0.1347,-0.1288,-0.1234,-0.1214,-0.1196,-0.1202,-0.1203,-0.1195,-0.1177,-0.1185,-0.1217,-0.1217,-0.1217,-0.1217,-0.1217,-0.1217,-0.1885,-0.1846,-0.1813,-0.1753,-0.1713,-0.1666,-0.1638,-0.1599,-0.1559,-0.1498,-0.1457,-0.1419,-0.1365,-0.1307,-0.126,-0.1244,-0.1226,-0.1237,-0.1216,-0.12,-0.1196,-0.1192,-0.1199,-0.1234,-0.1234,-0.1237,-0.1237,-0.1237]},{"header":{"parameterUnit":"m.s-1","parameterCategory":1,"la1":30.2991,"la2":30.254,"lo1":-89.0895,"lo2":-89.0444,"dy":0.0017,"dx":0.0017,"nx":28,"ny":28,"refTime":"2024-02-04T09:00:00:Z","depth":0,"parameterNumber":3,"parameterNumberName":"V-component_of_WINDS"},"data":[0,0,0,0,0,0,0,0,0,0,0,0,0,0,0,0,0,0,0,0,0,0,0,0,0,0,0,0,0,0,0,0,0,0,0,0,0,0,0,0,0,0,0,0,0,0,0,0,0,0,0,0,0,0,0,0,0,0,1.0551,1.0551,0,1.0557,1.0557,1.0557,1.0563,1.0563,1.0563,1.0563,1.0568,1.0568,1.0568,0,0,0,0,0,0,0,0,0,0,0,0,0,1.0545,1.0545,1.0551,1.0551,1.0551,1.0557,1.0557,1.0557,1.0563,1.0563,1.0563,1.0563,1.0568,1.0568,1.0568,0,0,0,0,0,0,0,0,0,0,0,0,0,1.0549,1.0545,1.0551,1.0555,1.0555,1.0557,1.0557,1.0557,1.0563,1.0563,1.0563,1.0563,1.0568,1.0568,1.0568,1.0567,0,0,1.0569,1.0569,0,0,0,0,0,0,0,0,1.0548,1.0549,1.0554,1.0555,1.0555,1.0559,1.0556,1.056,1.0563,1.056,1.0563,1.0563,1.0565,1.0565,1.0566,1.0567,1.0567,1.0569,1.0569,1.0569,1.0569,0,0,0,0,0,0,0,1.0548,1.0549,1.0553,1.0554,1.0555,1.0556,1.0557,1.0557,1.0562,1.056,1.056,1.0561,1.0565,1.0566,1.0566,1.0567,1.0569,1.0569,1.0569,1.0569,1.0566,1.0566,0,0,0,0,0,0,1.0547,1.0548,1.0553,1.0554,1.0552,1.0556,1.0557,1.0558,1.0562,1.0562,1.0561,1.0561,1.0566,1.0566,1.0567,1.0564,1.0569,1.0569,1.0569,1.0566,1.0566,1.0566,0,0,0,0,0,0,1.0547,1.0548,1.0553,1.0551,1.0552,1.0556,1.0557,1.0558,1.0559,1.0562,1.0563,1.0561,1.0566,1.0566,1.0566,1.0565,1.0569,1.0569,1.0566,1.0566,1.0566,1.056,0,0,0,0,0,0,1.0547,1.0548,1.0547,1.0551,1.0552,1.0553,1.0557,1.0558,1.0559,1.0559,1.0563,1.0563,1.0566,1.0566,1.0567,1.0565,1.0569,1.0567,1.0566,1.0566,1.0561,1.056,1.0559,0,0,0,0,0,1.0547,1.0545,1.0547,1.0548,1.0551,1.0553,1.0553,1.0557,1.0559,1.0558,1.056,1.0563,1.0565,1.0566,1.0567,1.0565,1.0567,1.0566,1.0566,1.0561,1.056,1.0559,0,0,0,0,0,0,1.0541,1.0546,1.0548,1.0548,1.055,1.0554,1.0553,1.0556,1.0557,1.0558,1.0562,1.0562,1.0562,1.0563,1.0565,1.0563,1.0566,1.0566,1.0562,1.0561,1.0561,1.056,1.0569,0,0,0,0,0,1.054,1.0541,1.0545,1.0544,1.0545,1.0549,1.055,1.0552,1.0554,1.0555,1.0558,1.056,1.0561,1.0561,1.0562,1.0561,1.0562,1.056,1.0559,1.0559,1.0559,1.0558,1.0557,1.0565,1.0565,1.0565,0,0,1.0537,1.054,1.054,1.0543,1.0545,1.0546,1.055,1.055,1.0551,1.0555,1.0555,1.0557,1.056,1.0559,1.0559,1.056,1.0556,1.0559,1.0558,1.0558,1.0557,1.0556,1.0556,1.0565,1.0565,1.0565,0,0,1.0533,1.0535,1.0535,1.0537,1.0539,1.0542,1.0542,1.0545,1.0547,1.0547,1.055,1.0551,1.0552,1.0554,1.0555,1.0551,1.0553,1.0551,1.0547,1.0546,1.0546,1.0545,1.0543,1.0543,1.0551,1.0551,1.0551,0,1.0529,1.053,1.0534,1.0534,1.0536,1.054,1.0539,1.0541,1.0544,1.0544,1.0546,1.0548,1.055,1.0549,1.0548,1.0549,1.0549,1.055,1.0545,1.0545,1.0544,1.0543,1.0542,1.055,1.055,1.055,1.055,0,1.0526,1.0526,1.0526,1.0528,1.0529,1.0529,1.0533,1.0533,1.0536,1.0538,1.0538,1.054,1.0542,1.0542,1.0544,1.0542,1.0542,1.0545,1.0548,1.0543,1.0542,1.0541,1.055,1.055,1.055,1.055,0,0,1.0518,1.0523,1.0522,1.0523,1.0527,1.0527,1.0527,1.0529,1.0529,1.0531,1.053,1.0532,1.0534,1.0535,1.0537,1.0536,1.0532,1.0539,1.0539,1.0537,1.0529,1.0527,1.0526,1.0534,1.0534,1.0534,1.0529,0,1.0514,1.0514,1.0517,1.0516,1.0517,1.0521,1.0521,1.0523,1.0525,1.0525,1.0527,1.0528,1.0531,1.0531,1.0531,1.0533,1.0531,1.0534,1.0534,1.0534,1.0533,1.0526,1.0524,1.0519,1.0528,1.0528,1.0528,0,1.0509,1.051,1.051,1.0513,1.0513,1.0513,1.0514,1.0515,1.0517,1.0518,1.0519,1.0522,1.0522,1.0525,1.0525,1.0526,1.0526,1.0528,1.0527,1.0527,1.053,1.0525,1.0517,1.0516,1.0527,1.0527,1.0528,0,1.0503,1.0505,1.0504,1.0505,1.0509,1.0509,1.051,1.0512,1.0513,1.0514,1.0514,1.0516,1.0516,1.0517,1.052,1.0522,1.0519,1.0522,1.052,1.052,1.0519,1.0519,1.0511,1.0519,1.0519,1.0519,1.052,0,1.0498,1.0497,1.0502,1.0501,1.05,1.0504,1.0503,1.0505,1.0507,1.0507,1.051,1.051,1.0514,1.0514,1.0517,1.0516,1.0516,1.0517,1.0517,1.0516,1.0516,1.0516,1.0517,1.0519,1.0519,1.0519,1.0519,0,1.0491,1.0494,1.0494,1.0497,1.0498,1.0497,1.05,1.0499,1.0502,1.0502,1.0502,1.0505,1.0505,1.0508,1.051,1.0511,1.0509,1.051,1.0508,1.0509,1.0506,1.0506,1.0497,1.0496,1.0506,1.0506,1.0506,0,1.0487,1.0486,1.049,1.049,1.0491,1.0492,1.0492,1.0496,1.0496,1.0498,1.0498,1.0498,1.0499,1.05,1.0502,1.0503,1.0504,1.0501,1.0504,1.0503,1.0503,1.0503,1.0503,1.05,1.05,1.05,1.05,0,1.048,1.0481,1.0482,1.0483,1.0484,1.0485,1.0487,1.0487,1.049,1.0491,1.0491,1.0492,1.0493,1.0493,1.0494,1.0496,1.0498,1.0499,1.0498,1.0497,1.0495,1.0496,1.0506,1.0499,1.0499,1.0499,1.0499,1.0499,1.0474,1.0474,1.0476,1.0477,1.0478,1.0479,1.0479,1.0481,1.0481,1.0483,1.0485,1.0485,1.0486,1.0488,1.0489,1.0489,1.0491,1.049,1.049,1.0489,1.0488,1.0496,1.0489,1.0489,1.0489,1.0489,1.0489,0,1.0467,1.0469,1.0469,1.0471,1.0471,1.0474,1.0475,1.0475,1.0475,1.0477,1.0477,1.0478,1.0478,1.0481,1.0481,1.0481,1.0482,1.0481,1.048,1.0481,1.0487,1.0488,1.048,1.048,1.048,1.048,1.048,1.048,1.0463,1.0463,1.0464,1.0464,1.0466,1.0466,1.0466,1.0467,1.0468,1.0469,1.0469,1.0471,1.0472,1.0473,1.0473,1.0474,1.0474,1.0472,1.0473,1.0479,1.048,1.0481,1.0481,1.0472,1.0472,1.0467,1.0466,1.0466]}]]